星链-32210 (STARLINK-32210)

导读

STARLINK-32210是美国SpaceX星链互联网卫星项目中的一颗卫星,于2024年8月20日发射入轨。星链计划旨在搭建覆盖全球的卫星互联网星座,为全球偏远地区、海洋等网络覆盖薄弱区域提供高速互联网服务,该卫星是星链低轨卫星星座组网建设的组成部分。

基本信息
目录编号:
60594
目录名称:
STARLINK-32210
国际标识:
2024-150M
轨道中心:
EARTH
卫星名称:
星链-32210 (STARLINK-32210)
卫星全名:
星链-32210 (STARLINK-32210)
卫星状态:
在轨 (已飞行666 天)
发射日期:
2024-08-20 UTC
国别 :
美国 (US)
星等 :
--
轨道信息
数据来源 国际轨道数据 AOE轨道数据
星历时间 2026-06-17T17:20:57+0800
13小时前
查看轨道信息
2026-06-17T02:00:00+0800
1天前
查看轨道信息
半长轴 6840.859km 6840.854km
偏心率 0.000115 0.0001193
轨道倾角 53.160° 53.157°
近地点辐角 97.210° 81.137°
升交点赤经 202.670° 205.662°
平近点角 262.904° 344.213°
近地点 461.935km 461.9km
远地点 463.509km 463.534km
周期 93.848分钟 93.848分钟
每日圈数 15.34394 15.343955
详细信息
卫星平台:
Starlink v2.0 mini
运营商:
太空探索技术公司
运营商所在国:
美国
制造商(研发单位):
太空探索技术公司
制造商所在国:
美国
使用方式:
暂无
卫星简介
星链(Starlink)计划是由太空探索技术公司(SpaceX)提出的一个巨型低轨卫星互联网星座项目,计划在2019年至2024年间在太空搭建由约1.2万颗卫星组成的“星链”网络,其中1584颗将部署在地球上空550千米处的近地轨道,并从2020年开始工作。该卫星仍在工作。
2D轨道图
3D轨道图
轨道高度分析图
轨道倾角分析图
轨道综合分析图
查看轨道综合分析图